Flag for U.S.A. Weather past 2 weeks in Lexington-Fayette, Kentucky, U.S.A.

Now
35 °F

Overcast.


Feels Like: 35 °F
Forecast: 28 / 43 °F
Wind: No wind

Location: Blue Grass Airport

Current Time: Dec 20, 2014 at 3:10:38 PM

Latest Report: Dec 20, 2014 at 1:54 PM


Visibility: 8 mi

Pressure: 30.26 "Hg

Humidity: 70%

Dew point: 26 °F

Location of Lexington-FayetteLocation

Historic Weather in Lexington-Fayette — Graph

°F

Lexington-Fayette temperature yesterday

Maximum temperature yesterday: 33 °F (at 1:54 PM)
Minimum temperature yesterday: 23 °F (at 10:54 PM)
Average temperature yesterday: 28 °F

Past Weeks' High & Low Weather Summary

 TemperatureHumidityPressure
High57 °F (Dec 5, 6:54 PM)100% (Dec 5, 1:02 PM)30.56 "Hg (Dec 5, 1:02 PM)
Low21 °F (Dec 12, 7:54 AM)41% (Dec 12, 3:54 PM)29.75 "Hg (Dec 16, 4:54 AM)
Average38 °F79%30.22 "Hg
* Reported Dec 5 1:02 PM — Dec 20 1:54 PM, Lexington-Fayette, Weather by CustomWeather, © 2014

Note: Actual official high and low records may vary slightly from our data, if they occured in-between our weather recording intervals... More about our weather records

Advertising

Lexington-Fayette weather history for previous 24 hours

 ConditionsComfort  
Time TempWeatherWind HumidityBarometerVisibility
1:54 PM
Dec 20
35 °FOvercast.No wind70%30.26 "Hg8 mi
12:54 PM35 °FOvercast.3 mph67%30.27 "Hg8 mi
11:54 AM33 °FOvercast.3 mph72%30.29 "Hg7 mi
10:54 AM31 °FOvercast.No wind76%30.31 "Hg7 mi
9:54 AM30 °FOvercast.5 mph79%30.30 "Hg7 mi
8:54 AM29 °FMostly cloudy.6 mph82%30.29 "Hg6 mi
7:54 AM28 °FOvercast.5 mph81%30.29 "Hg8 mi
6:54 AM28 °FMostly cloudy.7 mph81%30.28 "Hg8 mi
5:54 AM28 °FOvercast.6 mph81%30.27 "Hg8 mi
4:54 AM28 °FMostly cloudy.3 mph81%30.26 "Hg8 mi
3:54 AM27 °FLight snow. Mostly cloudy.5 mph81%30.24 "Hg5 mi
2:54 AM27 °FMostly cloudy.6 mph81%30.26 "Hg9 mi
1:54 AM28 °FOvercast.3 mph78%30.26 "Hg10 mi
12:54 AM27 °FClear.5 mph81%30.27 "Hg9 mi
11:54 PM
Dec 19
25 °FClear.5 mph81%30.28 "Hg9 mi
10:54 PM23 °FClear.7 mph85%30.28 "Hg9 mi
9:54 PM24 °FClear.7 mph84%30.28 "Hg9 mi
8:54 PM24 °FClear.7 mph84%30.30 "Hg9 mi
7:54 PM25 °FClear.8 mph85%30.30 "Hg9 mi
6:54 PM26 °FClear.7 mph81%30.31 "Hg10 mi
5:54 PM27 °FClear.6 mph78%30.30 "Hg10 mi
4:54 PM29 °FSunny.6 mph75%30.30 "Hg9 mi
3:54 PM33 °FSunny.3 mph66%30.27 "Hg10 mi
Weather by CustomWeather, © 2014

See weather overviewHow to use our weather pages